Regional Weather Roundup
Issued by NWS Albany, NY

Home | Current Version | Previous Version | Text Only | Print | Product List | Glossary On
Versions: 1 2 3 4 5 6 7 8 9 10 11 12 13 14 15 16 17 18 19 20 21 22 23 24 25 26 27
000
ASUS41 KALY 260810
RWRALY

NEW YORK STATE HOURLY WEATHER ROUNDUP
NATIONAL WEATHER SERVICE ALBANY NY
400 AM EDT FRI MAY 26 2017

NOTE: "FAIR" INDICATES FEW OR NO CLOUDS BELOW 12,000 FEET WITH NO
SIGNIFICANT WEATHER AND/OR NO OBSTRUCTIONS TO VISIBILITY.

NYZ032-033-038>043-046>054-057>066-NYZ062>081-082-084-260900-
EAST


CITY           SKY/WX    TMP DP  RH WIND       PRES   REMARKS
ALBANY         LGT RAIN  53  50  89 NW7       29.50F
GLENS FALLS    LGT RAIN  52  49  89 N8        29.52F
POUGHKEEPSIE   HVY RAIN  53  52  96 N3        29.48S FOG
NEWBURGH       DRIZZLE   54  54 100 N7        29.51R FOG
MONTGOMERY     LGT RAIN  54  53  97 NE5       29.49S
WHITE PLAINS   LGT RAIN  54  53  97 NW8       29.47R
ISLIP          LGT RAIN  55  55 100 NE13      29.44F
NEW YORK CITY  CLOUDY    57  54  89 N6        29.48R
CENTRAL PARK   CLOUDY    56  55  97 VRB5      29.51R
$$

NYZ005>009-017-018-044>046-055-056-260900-
CENTRAL


CITY           SKY/WX    TMP DP  RH WIND       PRES   REMARKS
FULTON         CLOUDY    57  52  83 CALM      29.53S
SYRACUSE       MOCLDY    54  53  97 NE3       29.52F
ROME           CLOUDY    55  52  89 CALM      29.54F
ELMIRA         CLOUDY    59  55  87 W3        29.54R
BINGHAMTON     CLOUDY    53  52  96 CALM      29.52F
MONTICELLO     MOCLDY    52  52 100 CALM      29.52S
$$

NYZ026>034-041>043-087-260900-
NORTH


CITY           SKY/WX    TMP DP  RH WIND       PRES   REMARKS
WATERTOWN      CLOUDY    55  55 100 NE7       29.54S
FORT DRUM      NOT AVBL
OGDENSBURG     CLOUDY    55  53  95 NE6       29.56F
MASSENA        CLOUDY    55  54  96 NE10      29.59F
SARANAC LAKE   CLOUDY    50  50 100 NE8       29.55S
PLATTSBURGH    CLOUDY    54  52  93 N5        29.58F
$$

NYZ001>004-010>016-019>021-085-260900-
WEST


CITY           SKY/WX    TMP DP  RH WIND       PRES   REMARKS
NIAGARA FALLS  CLOUDY    54  52  93 W6        29.57R FOG
BUFFALO        FOG       52  51  97 SW9       29.58R VSB 1/2
DUNKIRK        LGT RAIN  52  52 100 W3        29.60R FOG
JAMESTOWN      CLOUDY    54  50  87 W6        29.60R
WELLSVILLE     CLOUDY    54  52  93 W7        29.60R
ROCHESTER      DRIZZLE   57  55  93 W6        29.56R
PENN YAN       MOCLDY    56  53  90 VRB5      29.55S
$$

             KEY
       WCI = WIND CHILL INDEX
       VSB = VISIBILITY
       HX  = HEAT INDEX
$$




USA.gov is the U.S. government's official web portal to all federal, state and local government web resources and services.